{"data":{"norad_id":53823,"intl_designator":"2022-114F","name":"STARLINK-4748","alt_names":[],"object_type":"PAYLOAD","status":"ACTIVE","operator":null,"country":"US","launch_date":"2022-09-19","launch_site_code":"AFETR","launch_vehicle":null,"mission":null,"orbit_class":"UNKNOWN","rcs_meters":null,"size_class":null,"mass_kg":null,"dimensions":null,"purposes":["comms"],"wikipedia_slug":null,"has_3d_model":false,"image_url":null,"decayed_at":null,"tle_current":{"epoch":"2026-05-25T01:45:01.005120Z","epoch_age_seconds":62140,"freshness":"FRESH","line1":"1 53823U 22114F   26145.07292830  .00003791  00000+0  25625-3 0  9992","line2":"2 53823  53.2133 276.2059 0001430  93.1698 266.9458 15.08826268204995","mean_motion":15.08826268,"eccentricity":0.000143,"inclination_deg":53.2133,"raan_deg":276.2059,"arg_perigee_deg":93.1698,"mean_anomaly_deg":266.9458,"bstar":0.00025625,"rev_number":20499,"period_min":95.438423265839,"perigee_km":538.79609961503,"apogee_km":540.77462541071,"semimajor_km":6917.9223625129,"source":"CELESTRAK","updated_at":"2026-05-25T13:38:17.569690Z"}}}